STARLINK-31447, 59302

Orbit data source: Space-Track

STARLINK-31447, 59302 is a payload satellite owned by SpaceX/Seattle (US) in LEO that was launched on Sun, 24 Mar 2024 UTC via an FALCON 9 launch vehicle from the Air Force Eastern Test Range (AFETR). Payload-class satellites include a variety of spacecraft equipped with specific instruments for various scientific and technological missions. These include communications satellites like Starlink; space stations such as the ISS; scientific satellites like the Hubble; Earth observation satellites from companies like Planet Labs, Umbra, and HawkEye 360; GPS; miniature CubeSats for education and research; and military/defense satellites.

Loading next visibility...
Identifier
59302, 2024-056G
Orbit
LEO
Country
Flag of USUS
Related business
Manufacturer
SpaceX/Seattle
Mission
Operational Commercial Communications
Bus & Motor
STARLINK V2M, Unknown motor
Mass
730 kg wet, ~700 kg dry
Launch date (UTC)
2024-03-24 (2 years ago)
Launch vehicle
FALCON 9
Launch site
Air Force Eastern Test Range (AFETR)
Object type
Payload
Rocket body
Debris
Shape & HBR
Box + 2 Pan, 17.7 m
Radar Cross Section
33.884 m², Large (>1 m²)

Expand to show TLE details & history
Last TLE update: 2 days ago

TLE from 2 days ago
0 STARLINK-31447
1 59302U 24056G   26171.27729400  .00000662  00000-0  33561-4 0  9990
2 59302  43.0030  11.3599 0000832 262.7222  97.3535 15.27573542126849
Epoch: 2026-06-20T06:39Z
TLE epoch observation values (Epoch: 2026-06-20T06:39:18.201Z)
Latitude
-0.00003°
Longitude
3.0398°
Altitude
482.917 km
Speed
7.626 km/s
True Right ascension
00h 45m 26s
True Declination
0° 00' 00"
Sunlit
Object was in daylight at epoch
Visualization orbit readout
Latitude
Unknown
Longitude
Unknown
Altitude
Unknown
Speed
Unknown
Apparent Right ascension
Unknown
Apparent Declination
Unknown
Sunlit
N/A
Visualization observer readout
Local Sidereal Time
21:29:11
Azimuth
Unknown
Elevation
Unknown
Doppler factor
Unknown
Orbital elements
Apogee altitude
485.584 km
Perigee altitude
484.442 km
Semi-major axis
6,863.15 km
Eccentricity
0.00008
Inclination
43.003°
RAAN
11.3599°
Arg. of periapsis
262.7222°
True anomaly
97.36296°
Mean anomaly
97.3535°
Eccentric anomaly
97.35823°
Mean motion
3.81731 °/min
Orbital period
94.31 mins
BSTAR
0.000033561
Loading maneuver chart data...
Computing Atmospheric mass density...
Loading historical data...
Loading historical data...
Loading historical data...
Loading historical data...
Loading historical data...
Loading historical data...
Loading historical data...

Documentation

Showing up to 5 results
|